Location: Mentone
(34.5413°N, 85.5351°W)
Time: 09:30:00
(UTC-05:00)

ADEOS Rocket - Visible Passes

Search period start: 28 July 2016 00:00
Search period end: 07 August 2016 00:00
Orbit: 858 x 1307 km, 98.7° (Epoch: 26 July)

Date Brightness Start Highest point End Pass type
(mag) Time Alt. Az. Time Alt. Az. Time Alt. Az.
28 Jul 3.8 04:50:36 10° NNE 04:57:15 65° ESE 05:04:33 10° S visible
29 Jul 5.1 04:02:34 10° NE 04:08:14 28° E 04:14:18 10° SSE visible
30 Jul 3.6 04:58:12 10° NNE 05:04:59 76° ESE 05:12:25 10° S visible
31 Jul 4.9 04:09:55 10° NE 04:16:01 33° E 04:22:32 10° SSE visible
01 Aug 5.9 03:23:56 10° ENE 03:26:46 13° E 03:29:40 10° ESE visible
01 Aug 3.5 05:05:49 10° NNE 05:12:42 87° E 05:20:15 10° SSW visible
02 Aug 4.7 04:17:21 10° NNE 04:23:47 38° E 04:30:41 10° SSE visible
03 Aug 5.8 03:30:35 10° ENE 03:34:35 16° E 03:38:45 10° SE visible
03 Aug 3.5 05:13:28 10° N 05:20:26 82° WNW 05:28:01 10° SSW visible
04 Aug 4.5 04:24:50 10° NNE 04:31:34 45° E 04:38:45 10° S visible
05 Aug 5.6 03:37:34 10° NE 03:42:25 19° E 03:47:27 10° SE visible
05 Aug 3.5 05:21:09 10° N 05:28:10 72° WNW 05:35:44 10° SSW visible
06 Aug 4.2 04:32:23 10° NNE 04:39:19 53° E 04:46:45 10° S visible
